Showing default

COSMOS 2576, 59773

Orbit data source: Space-Track

COSMOS 2576, 59773 is a payload satellite owned by TS VS RF (CIS) in SSO that was launched on Thu, 16 May 2024 UTC via a SOYUZ-2-1B launch vehicle from the Plesetsk Missile And Space Complex (PKMTR). Payloads include a variety of satellites, spacecraft, and rockets equipped with specific instruments for various scientific and technological missions. These include communications satellites like Starlink; space stations such as the ISS; scientific satellites like the Hubble; Earth observation satellites from companies like Planet Labs, Umbra, and HawkEye 360; GPS; miniature CubeSats for education and research; and military/defense satellites.

Loading next visibility...
COSMOS 2576 details
Identifier
59773, 2024-092A
Orbit
SSO
Last TLE update15 hours ago
Origin
Flag of CISTS VS RF (CIS)
ManufacturerLavochkin
MissionOperational spacecraft
Bus & MotorKARAT-200, Unknown motor
Mass~500 kg wet, ~500 kg dry
Launch date (UTC)
2024-05-16 (7 months ago)
Launch vehicle
SOYUZ-2-1B
Launch site
Plesetsk Missile And Space Complex (PKMTR)
Object type
Payload
Rocket body
Debris
Shape & HBRUnknown
Radar Cross SectionLarge (>1 m²)

Expand to show TLE details & history

TLE from 15 hours ago
0 COSMOS 2576
1 59773U 24092A   24355.89229181  .00027178  00000-0  87963-3 0  9998
2 59773  97.3352 105.4070 0009593 217.1157 142.9422 15.31971019 33523
Epoch: 2024-12-20T21:24Z
Definitive object data (Epoch: 2024-12-20T21:24:54.012Z)
Latitude-0.00006°
Longitude54.23067°
Altitude478.287 km
Speed7.624 km/s
True Right ascension07h 01m 37s
True Declination0° 00' 00"
Sunlit
Object was in full shadow at TLE epoch
Visualization TLE readout
Latitude-27.31431°
Longitude-128.94081°
Altitude473.647 km
Speed7.631 km/s
Apparent Right ascension20h 50m 53s
Apparent Declination-38° 29' 38"
Sunlit
Object is in daylight
Visualization observer readout
Local Sidereal Time11:27:21
Azimuth100.076° ESE
Elevation-59.899°
Doppler factor1
Orbital elements
Apogee altitude473.445 km
Perigee altitude460.313 km
Semi-major axis6,845.016 km
Eccentricity0.0009593
Inclination97.3352°
RAAN105.407°
Arg. of periapsis217.1157°
True anomaly143.00838°
Mean anomaly142.9422°
Eccentric anomaly142.9753°
Mean motion3.83249 °/min
BSTAR0.00087963
Orbital period93.93 mins
Loading maneuver chart data...
Loading historical data...
Loading historical data...
Loading historical data...
Loading historical data...
Loading historical data...
Loading historical data...
Loading historical data...

COSMOS 2576 Visibility forecast

Observer location: undefined°, undefined

Span
Click to sort rows by Start time (UTC) header in descending order
Start Az.
Max El. time (UTC)
Max El. Az.
Max El.
End time (UTC)
End Az.
6 mins2024-12-21 19:55:33.343Z33.134° NE2024-12-21 19:58:33.343Z102.513° ESE29.182°2024-12-21 20:01:33.343Z164.325° S
5 mins2024-12-22 08:02:33.343Z207.184° SW2024-12-22 08:04:33.343Z268.975° W30.615°2024-12-22 08:07:33.343Z329.995° NNW
|